Location: ????? ???????
(25.7275°N, 32.5929°E)
Time: 11:56:12
(UTC+00:00)

Cosmos 2181 Rocket - Pass Details

Date: 02 March 2021
Orbit: 951 x 1015 km, 82.9° (Epoch: 15 April)

Event Time Altitude Azimuth Distance (km) Brightness Sun altitude
Rises 16:14:02 0° 352° (N) 3,745 7.1 -5.8°
Reaches altitude 10° 16:16:35 10° 351° (N) 2,787 6.5 -6.3°
Maximum altitude 16:22:59 76° 267° (W) 1,028 4.3 -7.8°
Drops below altitude 10° 16:29:16 10° 182° (S) 2,738 6.4 -9.2°
Sets 16:31:45 0° 181° (S) 3,674 7.1 -9.8°
